Location: Shepherdstown, WV
(39.4326°N, 77.8042°W)
Time: 03:48:19
(UTC-04:00)

Vanguard 1 - Pass Details

Date: 29 September 2021
Orbit: 653 x 3829 km, 34.2° (Epoch: 18 October)

Event Time Altitude Azimuth Distance (km) Brightness Sun altitude
Rises 20:23:46 0° 255° (WSW) 5,477 15.0 -17.6°
Reaches altitude 10° 20:26:43 10° 253° (WSW) 4,808 14.5 -18.2°
Maximum altitude 20:41:53 74° 172° (S) 3,331 12.5 -21.0°
Enters shadow 20:56:50 29° 96° (E) 5,404 13.2 -23.8°
